Location: Bremen
(53.0796°N, 8.8241°E)
Time: 10:29:17
(UTC+01:00)

N. Korean satellite - Visible Passes

Search period start: 25 November 2017 00:00
Search period end: 05 December 2017 00:00
Orbit: 460 x 514 km, 97.2° (Epoch: 24 November)

Date Brightness Start Highest point End Pass type
(mag) Time Alt. Az. Time Alt. Az. Time Alt. Az.
25 Nov 9.0 06:40:32 10° NNE 06:43:50 28° E 06:47:09 10° SSE visible
25 Nov 7.5 17:22:50 10° SE 17:25:55 28° ENE 17:29:05 10° N visible
25 Nov 8.6 18:56:15 10° SSW 18:59:24 29° W 19:02:39 10° NNW visible
26 Nov 9.8 06:17:35 10° NE 06:20:09 17° E 06:22:43 10° SE visible
26 Nov 8.1 17:00:09 10° ESE 17:02:36 18° ENE 17:05:07 10° NNE visible
26 Nov 7.4 18:32:17 10° S 18:35:48 52° W 18:39:23 10° NNW visible
27 Nov 10.4 05:55:51 10° ENE 05:56:23 10° E 05:56:55 10° E visible
27 Nov 6.8 07:26:43 10° NNE 07:30:30 87° ESE 07:34:16 10° SSW visible
27 Nov 6.5 18:08:40 10° SSE 18:12:15 85° ENE 18:15:57 10° NNW visible
27 Nov 10.1 19:45:37 10° W 19:46:22 10° W 19:47:07 10° WNW visible
28 Nov 7.8 07:03:17 10° NNE 07:06:58 49° E 07:10:37 10° S visible
28 Nov 6.8 17:45:19 10° SE 17:48:47 47° ENE 17:52:20 10° N visible
28 Nov 9.5 19:20:03 10° SW 19:22:35 18° W 19:25:09 10° NW visible
29 Nov 9.0 06:40:01 10° NNE 06:43:20 28° E 06:46:38 10° SSE visible
29 Nov 7.5 17:22:16 10° SE 17:25:23 28° ENE 17:28:35 10° N visible
29 Nov 8.6 18:55:40 10° SSW 18:58:52 30° W 19:02:10 10° NNW visible
30 Nov 9.8 06:17:03 10° NE 06:19:38 17° E 06:22:11 10° SE visible
30 Nov 8.1 16:59:34 10° ESE 17:02:04 18° ENE 17:04:37 10° NNE visible
30 Nov 7.4 18:31:42 10° S 18:35:15 53° W 18:38:53 10° NNW visible
01 Dec 10.4 05:55:20 10° ENE 05:55:50 10° E 05:56:21 10° E visible
01 Dec 6.8 07:26:10 10° NNE 07:29:58 87° ESE 07:33:45 10° SSW visible
01 Dec 6.5 18:08:03 10° SSE 18:11:41 84° ENE 18:15:25 10° NNW visible
01 Dec 10.1 19:44:52 10° W 19:45:47 11° W 19:46:43 10° WNW visible
02 Dec 7.8 07:02:43 10° NNE 07:06:24 48° E 07:10:04 10° S visible
02 Dec 6.8 17:44:42 10° SE 17:48:12 47° ENE 17:51:48 10° N visible
02 Dec 9.5 19:19:24 10° SW 19:22:00 18° W 19:24:38 10° NW visible
03 Dec 9.0 06:39:26 10° NNE 06:42:46 28° E 06:46:03 10° SSE visible
03 Dec 7.5 17:21:38 10° SE 17:24:48 28° ENE 17:28:01 10° N visible
03 Dec 8.5 18:55:01 10° SSW 18:58:17 30° W 19:01:36 10° NNW visible
04 Dec 9.8 06:16:28 10° NE 06:19:02 17° E 06:21:34 10° SE visible
04 Dec 8.1 16:58:55 10° ESE 17:01:28 18° ENE 17:04:02 10° NNE visible
04 Dec 7.4 18:31:03 10° S 18:34:37 54° W 18:38:18 10° NNW visible
